Date,TemperatureHighF,TemperatureAvgF,TemperatureLowF,DewpointHighF,DewpointAvgF,DewpointLowF,HumidityHigh,HumidityAvg,HumidityLow,PressureMaxIn,PressureMinIn,WindSpeedMaxMPH,WindSpeedAvgMPH,GustSpeedMaxMPH,PrecipitationSumIn
2013-9-1,98,86,74,67,62,59,69,47,31,29.76,29.62,8,1,12,0.00
2013-9-2,93,84,77,69,63,58,62,49,32,29.78,29.62,15,1,15,0.00
2013-9-3,95,83,75,63,59,51,57,44,30,29.77,29.67,23,2,23,0.00
2013-9-4,100,88,75,61,53,43,54,34,18,29.81,29.67,23,2,23,0.00
2013-9-5,101,91,80,56,50,45,37,25,17,29.75,29.64,23,3,23,0.00
2013-9-6,96,83,72,68,57,51,74,43,23,29.78,29.65,19,1,19,0.25
2013-9-7,86,77,68,68,64,59,89,66,40,29.83,29.71,12,0,12,0.18
2013-9-8,82,74,70,69,67,63,90,78,56,29.75,29.63,9,0,9,0.07
2013-9-9,83,73,69,70,66,64,93,80,57,29.71,29.60,12,0,12,0.10
2013-9-10,84,73,62,66,61,57,91,68,42,29.80,29.65,15,1,16,0.09
2013-9-11,90,78,67,62,57,52,76,51,29,29.85,29.74,9,0,9,0.00
2013-9-12,95,80,69,60,55,50,60,43,27,29.76,29.60,12,0,12,0.00
2013-9-13,94,82,71,62,57,52,60,44,28,29.66,29.47,9,0,9,0.00
2013-9-14,97,85,73,63,56,47,62,40,19,29.58,29.47,12,1,12,0.00
2013-9-15,100,86,73,61,55,50,58,37,20,29.63,29.53,14,1,14,0.00
2013-9-16,98,88,77,59,56,54,47,35,25,29.65,29.54,18,2,18,0.00
2013-9-17,99,88,77,59,55,46,48,33,23,29.62,29.48,15,1,15,0.00
2013-9-18,100,87,76,50,42,28,35,22,10,29.60,29.47,16,1,16,0.00
2013-9-19,99,85,74,51,45,40,40,26,15,29.62,29.51,25,1,25,0.00
2013-9-20,98,85,74,54,46,41,41,27,18,29.67,29.57,12,1,12,0.00
2013-9-21,97,83,71,63,54,49,68,40,21,29.68,29.51,20,2,20,0.08
2013-9-22,88,77,66,68,54,35,87,47,25,29.64,29.45,30,3,32,0.17
2013-9-23,90,75,63,44,36,31,39,25,15,29.79,29.64,8,1,8,0.00
2013-9-24,96,81,67,43,36,29,33,21,10,29.83,29.66,13,1,13,0.00
2013-9-25,94,80,66,40,28,19,34,17,8,29.70,29.51,23,5,23,0.00
2013-9-26,91,80,71,55,37,21,55,23,14,29.59,29.48,24,8,27,0.00
2013-9-27,82,70,62,56,41,23,62,37,18,29.84,29.58,12,2,14,0.00
2013-9-28,87,73,59,42,34,25,31,24,19,29.95,29.83,7,1,10,0.00
2013-9-29,90,77,66,42,37,31,34,24,17,29.94,29.81,12,1,12,0.00
2013-9-30,91,77,66,38,32,22,31,21,10,29.85,29.72,13,1,13,0.00